[[{"header":{"parameterUnit":"m.s-1","parameterCategory":1,"la1":30.2991,"la2":30.254,"lo1":-89.0895,"lo2":-89.0444,"dy":0.0017,"dx":0.0017,"nx":28,"ny":28,"refTime":"2025-08-13T09:00:00:Z","depth":0,"parameterNumber":2,"parameterNumberName":"U-component_of_WINDS"},"data":[0,0,0,0,0,0,0,0,0,0,0,0,0,0,0,0,0,0,0,0,0,0,0,0,0,0,0,0,0,0,0,0,0,0,0,0,0,0,0,0,0,0,0,0,0,0,0,0,0,0,0,0,0,0,0,0,0,0,4.6974,4.6973,0,4.6908,4.6907,4.6907,4.6755,4.6752,4.6749,4.6746,4.668,4.6681,4.6682,0,0,0,0,0,0,0,0,0,0,0,0,0,4.697,4.6971,4.6974,4.6973,4.6973,4.6908,4.6907,4.6906,4.6755,4.6752,4.6748,4.6744,4.668,4.6681,4.6682,0,0,0,0,0,0,0,0,0,0,0,0,0,4.6945,4.6971,4.6974,4.6889,4.6881,4.6909,4.6907,4.6906,4.6756,4.6751,4.6747,4.6742,4.6679,4.6681,4.6683,4.6788,0,0,4.6688,4.6689,0,0,0,0,0,0,0,0,4.6947,4.6945,4.6903,4.6895,4.6886,4.6835,4.6882,4.6867,4.6757,4.6804,4.6745,4.674,4.6736,4.6732,4.673,4.6785,4.6782,4.6688,4.6689,4.669,4.6691,0,0,0,0,0,0,0,4.6949,4.6947,4.6948,4.6902,4.6892,4.6855,4.6846,4.6878,4.6797,4.6799,4.6788,4.6782,4.673,4.6729,4.6728,4.6781,4.6688,4.669,4.6691,4.6692,4.6915,4.692,0,0,0,0,0,0,4.6962,4.695,4.695,4.6946,4.6905,4.6859,4.6849,4.6856,4.6796,4.6782,4.6786,4.6775,4.6728,4.6726,4.6725,4.6841,4.669,4.6692,4.6693,4.6911,4.6917,4.6922,0,0,0,0,0,0,4.6963,4.6964,4.6953,4.6945,4.6941,4.6864,4.6873,4.6857,4.6856,4.6786,4.6771,4.68,4.6725,4.6722,4.6772,4.6837,4.6693,4.6694,4.6905,4.6912,4.6919,4.7077,0,0,0,0,0,0,4.6964,4.6965,4.7004,4.6947,4.6942,4.7002,4.6877,4.6859,4.6859,4.6844,4.6795,4.6783,4.6721,4.6771,4.6774,4.6836,4.6696,4.6899,4.6908,4.6917,4.7065,4.7088,4.7108,0,0,0,0,0,4.6964,4.7052,4.7007,4.7008,4.6989,4.7006,4.7003,4.6929,4.6865,4.6903,4.6858,4.6784,4.683,4.6777,4.678,4.6844,4.6894,4.6906,4.6916,4.7056,4.7084,4.7108,0,0,0,0,0,0,4.712,4.7043,4.6992,4.7064,4.7043,4.698,4.7026,4.6962,4.6958,4.6945,4.6854,4.6844,4.6906,4.688,4.6823,4.6941,4.685,4.6862,4.6955,4.6981,4.7002,4.7006,4.6697,0,0,0,0,0,4.7163,4.7182,4.7115,4.7185,4.7177,4.7104,4.7109,4.7054,4.7028,4.7018,4.6977,4.6955,4.6964,4.6972,4.6976,4.7062,4.7047,4.7107,4.7129,4.7147,4.7157,4.7197,4.7222,4.6958,4.6958,4.6958,0,0,4.7251,4.7212,4.723,4.7215,4.7192,4.7214,4.7097,4.7126,4.7141,4.7023,4.7066,4.7036,4.7005,4.7073,4.71,4.7053,4.7227,4.7161,4.7176,4.7176,4.7211,4.7236,4.7258,4.6965,4.6964,4.6963,0,0,4.7422,4.7396,4.745,4.7429,4.7394,4.7345,4.7359,4.7306,4.728,4.7323,4.7233,4.7251,4.7269,4.725,4.7243,4.7407,4.7338,4.7412,4.7523,4.7563,4.7584,4.7602,4.7657,4.7678,4.7423,4.7424,4.7424,0,4.7536,4.7565,4.7486,4.752,4.7515,4.7408,4.7462,4.7446,4.7416,4.7415,4.7362,4.7381,4.7354,4.7413,4.7453,4.7453,4.7463,4.7415,4.7587,4.7604,4.762,4.7671,4.7693,4.7433,4.7432,4.7431,4.743,0,4.7706,4.7728,4.7776,4.7747,4.7749,4.7793,4.7719,4.7731,4.7676,4.7633,4.7676,4.764,4.7634,4.7645,4.7593,4.7697,4.7668,4.7604,4.7509,4.7655,4.7702,4.7722,4.7445,4.7442,4.744,4.7437,0,0,4.7971,4.7898,4.7917,4.7901,4.7856,4.7871,4.7911,4.7904,4.7914,4.7897,4.7926,4.7944,4.7883,4.7875,4.782,4.7856,4.7984,4.7786,4.7783,4.7821,4.8094,4.814,4.8164,4.7939,4.7943,4.7946,4.8095,0,4.8129,4.8189,4.8119,4.8195,4.8212,4.8112,4.8145,4.8121,4.8082,4.8092,4.8049,4.8061,4.7982,4.7975,4.8007,4.7962,4.8037,4.7951,4.7963,4.7965,4.797,4.8189,4.8239,4.8381,4.8113,4.8116,4.8118,0,4.832,4.8311,4.8388,4.8335,4.834,4.8372,4.8359,4.837,4.8341,4.8309,4.8301,4.8234,4.8268,4.818,4.8224,4.8167,4.8168,4.8147,4.8151,4.8146,4.8048,4.8187,4.8425,4.8445,4.8147,4.8145,4.8143,0,4.8501,4.8509,4.8554,4.8545,4.8487,4.8511,4.8488,4.8453,4.8453,4.8443,4.8441,4.8436,4.8432,4.843,4.8363,4.8305,4.8415,4.8321,4.8388,4.839,4.8412,4.8411,4.865,4.8421,4.842,4.842,4.8419,0,4.8682,4.8733,4.8635,4.8663,4.8716,4.8635,4.869,4.8657,4.8627,4.8646,4.8561,4.8581,4.8494,4.8505,4.8454,4.8496,4.8496,4.8471,4.8456,4.8476,4.8479,4.8473,4.846,4.8425,4.8424,4.8423,4.8422,0,4.8892,4.8829,4.8872,4.8813,4.8799,4.884,4.8789,4.8813,4.8769,4.8794,4.8796,4.8726,4.8734,4.8669,4.8666,4.8631,4.8696,4.8667,4.8706,4.8695,4.8764,4.8757,4.9004,4.9031,4.8789,4.8791,4.8793,0,4.9009,4.9045,4.899,4.8996,4.8977,4.8989,4.8988,4.8911,4.8913,4.8882,4.8909,4.891,4.8906,4.8924,4.8873,4.8869,4.8836,4.8923,4.8835,4.8853,4.8833,4.883,4.8832,4.8941,4.8944,4.8946,4.8948,0,4.9224,4.919,4.9192,4.9183,4.9184,4.9173,4.9156,4.9167,4.9083,4.909,4.9096,4.9094,4.9089,4.9091,4.9077,4.9053,4.8986,4.8977,4.8991,4.901,4.903,4.9017,4.8752,4.8971,4.8968,4.8967,4.8966,4.8965,4.9388,4.9414,4.9378,4.9382,4.9362,4.9348,4.9366,4.9324,4.9328,4.9317,4.9273,4.9287,4.9255,4.923,4.9212,4.9222,4.918,4.9202,4.9207,4.9212,4.9223,4.9032,4.922,4.9219,4.9218,4.9218,4.9217,0,4.9594,4.9566,4.9571,4.955,4.9553,4.9491,4.9469,4.9476,4.9489,4.9466,4.9463,4.9471,4.9471,4.9421,4.9415,4.9433,4.9402,4.9434,4.9429,4.9424,4.9263,4.9249,4.9458,4.9458,4.9458,4.9458,4.9458,4.9458,4.9701,4.9741,4.9704,4.9733,4.9704,4.9717,4.971,4.9696,4.9676,4.9688,4.9688,4.9655,4.962,4.9611,4.9609,4.9594,4.9594,4.9636,4.961,4.946,4.9436,4.9414,4.94,4.9637,4.9638,4.977,4.9771,4.9772]},{"header":{"parameterUnit":"m.s-1","parameterCategory":1,"la1":30.2991,"la2":30.254,"lo1":-89.0895,"lo2":-89.0444,"dy":0.0017,"dx":0.0017,"nx":28,"ny":28,"refTime":"2025-08-13T09:00:00:Z","depth":0,"parameterNumber":3,"parameterNumberName":"V-component_of_WINDS"},"data":[0,0,0,0,0,0,0,0,0,0,0,0,0,0,0,0,0,0,0,0,0,0,0,0,0,0,0,0,0,0,0,0,0,0,0,0,0,0,0,0,0,0,0,0,0,0,0,0,0,0,0,0,0,0,0,0,0,0,4.8894,4.8895,0,4.9021,4.9022,4.9024,4.9022,4.902,4.9018,4.9017,4.9138,4.9143,4.9148,0,0,0,0,0,0,0,0,0,0,0,0,0,4.8639,4.8644,4.8894,4.8895,4.8897,4.9021,4.9022,4.9024,4.9022,4.902,4.9018,4.9016,4.9137,4.9143,4.9148,0,0,0,0,0,0,0,0,0,0,0,0,0,4.8756,4.8645,4.8893,4.8911,4.8914,4.902,4.9022,4.9025,4.9022,4.902,4.9017,4.9015,4.9135,4.9142,4.9149,4.9244,0,0,4.9171,4.9174,0,0,0,0,0,0,0,0,4.8749,4.8765,4.8907,4.891,4.8913,4.9003,4.8977,4.9098,4.9023,4.8981,4.9016,4.9014,4.9095,4.9105,4.9134,4.925,4.9255,4.9172,4.9176,4.9179,4.9181,0,0,0,0,0,0,0,4.8741,4.876,4.8944,4.8909,4.8913,4.8909,4.8923,4.9,4.905,4.8984,4.8984,4.9,4.9096,4.9127,4.9137,4.9257,4.9172,4.9178,4.9183,4.9185,4.9454,4.9456,0,0,0,0,0,0,4.8731,4.8753,4.894,4.8948,4.8824,4.8916,4.8931,4.8976,4.9049,4.9058,4.9002,4.8999,4.9116,4.9129,4.9141,4.9256,4.9179,4.9186,4.919,4.9451,4.9454,4.9457,0,0,0,0,0,0,4.8725,4.8748,4.8935,4.8851,4.8874,4.8923,4.8974,4.898,4.9012,4.9063,4.9071,4.9026,4.9115,4.9131,4.9219,4.926,4.9189,4.9196,4.9448,4.9452,4.9456,4.9487,0,0,0,0,0,0,4.8718,4.8746,4.8785,4.8852,4.8879,4.9013,4.8976,4.8985,4.9025,4.9023,4.9087,4.9095,4.9114,4.9208,4.9226,4.9269,4.9202,4.9444,4.945,4.9455,4.9482,4.9491,4.9499,0,0,0,0,0,4.8709,4.8787,4.8787,4.8809,4.8929,4.9015,4.903,4.9053,4.9029,4.9067,4.9099,4.9093,4.9253,4.9217,4.9237,4.9283,4.9442,4.9448,4.9454,4.9478,4.949,4.9499,0,0,0,0,0,0,4.8721,4.8796,4.8797,4.8899,4.8951,4.9015,4.9063,4.9065,4.9122,4.9117,4.914,4.9155,4.9242,4.9271,4.923,4.9377,4.9344,4.9354,4.9355,4.9366,4.9375,4.9365,4.9208,0,0,0,0,0,4.8736,4.8803,4.8864,4.8948,4.8974,4.9014,4.9053,4.9066,4.9119,4.914,4.9179,4.9229,4.929,4.933,4.9389,4.9486,4.9498,4.9527,4.9536,4.9543,4.9551,4.9602,4.9615,4.9478,4.9478,4.9478,0,0,4.8767,4.8816,4.8857,4.8952,4.8994,4.9059,4.9033,4.9104,4.9151,4.915,4.9236,4.9266,4.9322,4.9414,4.9457,4.9441,4.9592,4.9551,4.9556,4.9561,4.961,4.9623,4.9634,4.9482,4.9482,4.9481,0,0,4.8857,4.8902,4.8977,4.9019,4.9084,4.9109,4.9127,4.9191,4.9211,4.9298,4.9298,4.9353,4.9459,4.9499,4.9533,4.9635,4.9631,4.9654,4.9698,4.9747,4.9758,4.9768,4.9802,4.9815,4.9662,4.9662,4.9662,0,4.8886,4.8988,4.9014,4.9085,4.9125,4.913,4.9203,4.9242,4.9321,4.9348,4.933,4.9462,4.95,4.96,4.9626,4.9654,4.9672,4.9646,4.9755,4.9765,4.9774,4.9807,4.982,4.9665,4.9664,4.9664,4.9664,0,4.902,4.909,4.9142,4.9221,4.9267,4.9339,4.9372,4.9415,4.9424,4.945,4.9536,4.9583,4.965,4.9675,4.9684,4.9776,4.9764,4.9751,4.9717,4.9789,4.982,4.9833,4.9668,4.9667,4.9666,4.9666,0,0,4.9121,4.9213,4.9232,4.9267,4.9337,4.939,4.946,4.9529,4.9564,4.9618,4.9676,4.9764,4.9752,4.979,4.9803,4.9846,4.9922,4.9827,4.9829,4.9841,5.0024,5.0032,5.0047,4.992,4.9922,4.9924,5.0018,0,4.9217,4.9346,4.937,4.9481,4.9544,4.9548,4.9609,4.9657,4.9683,4.9738,4.9765,4.9827,4.9807,4.983,4.9874,4.9904,4.9958,4.9897,4.997,4.9973,4.9955,5.0064,5.0074,5.016,5.0031,5.0033,5.0035,0,4.9346,4.9406,4.9523,4.9584,4.9611,4.9666,4.9729,4.9783,4.9836,4.9852,4.9894,4.9902,4.9971,4.9935,5.003,4.9988,5.0019,5.0037,5.0041,5.0048,5.0007,5.0071,5.0189,5.0201,5.0054,5.0053,5.0051,0,4.9406,4.9515,4.9599,4.9629,4.9702,4.974,4.9771,4.9822,4.9861,4.9916,4.9941,5.0002,5.0035,5.008,5.0102,5.0075,5.0194,5.0161,5.0206,5.0206,5.0231,5.0228,5.0353,5.0253,5.0253,5.0253,5.0252,0,4.951,4.9581,4.9627,4.9678,4.9757,4.9782,4.9858,4.9888,4.9933,4.9988,4.9995,5.0045,5.0072,5.0126,5.0143,5.0217,5.0232,5.0244,5.0248,5.0243,5.0241,5.0263,5.0257,5.0256,5.0255,5.0255,5.0254,0,4.9589,4.9624,4.9715,4.9777,4.9794,4.9849,4.99,4.9948,4.9974,5.0043,5.0061,5.01,5.0164,5.0191,5.0268,5.0279,5.0363,5.0363,5.0346,5.0347,5.039,5.0385,5.0531,5.0551,5.044,5.0441,5.0442,0,4.9653,4.9708,4.9776,4.9815,4.9848,4.991,4.995,4.9976,5.0017,5.0081,5.012,5.0184,5.0237,5.0337,5.037,5.0429,5.0429,5.0476,5.0437,5.043,5.0427,5.0423,5.0427,5.0482,5.0483,5.0484,5.0485,0,4.9761,4.9775,4.9834,4.9899,4.9948,4.9999,5.005,5.008,5.0113,5.0158,5.0224,5.0265,5.0344,5.0406,5.0466,5.0495,5.0494,5.0497,5.051,5.0505,5.0493,5.0498,5.0364,5.0493,5.0493,5.0492,5.0491,5.0491,4.9833,4.9882,4.9937,5.0002,5.0043,5.009,5.0138,5.017,5.0227,5.0295,5.0306,5.0376,5.0424,5.0505,5.0536,5.0589,5.0576,5.0596,5.0601,5.0605,5.0607,5.0486,5.06,5.06,5.0599,5.0599,5.0599,0,4.994,4.9976,5.0036,5.0107,5.0157,5.0156,5.021,5.0251,5.0314,5.0361,5.0413,5.0487,5.0547,5.0585,5.0644,5.0679,5.068,5.0693,5.069,5.0696,5.0615,5.0597,5.0691,5.0691,5.0691,5.0691,5.0691,5.0691,5.0001,5.0083,5.0103,5.0203,5.0237,5.0308,5.0339,5.0381,5.0418,5.0502,5.0553,5.0578,5.062,5.0683,5.0736,5.0746,5.0766,5.078,5.0789,5.0712,5.0702,5.0693,5.0676,5.0785,5.0785,5.0865,5.0866,5.0866]}]]